Wind_Speed
22 22 22 21 21 20 20 19 19 19 19 19 19 19 20 21 21 22 22 23 24 24 25 25 26 27 28 29 29 30 31 31 32 32 33 33 33 32 32 32 32 31 31
24 24 23 23 23 23 22 22 21 21 21 21 21 22 22 23 24 24 25 26 26 27 27 28 29 30 30 30 31 32 33 33 33 34 34 34 34 34 34 33 33 33 32
26 26 26 26 25 25 25 24 24 24 23 23 24 24 25 25 26 27 27 28 28 29 30 31 32 32 32 32 33 34 34 34 35 36 36 36 36 35 35 34 34 34 34
28 28 28 28 27 27 27 27 26 26 26 26 26 26 27 28 28 29 30 30 31 32 33 34 34 35 35 35 35 35 36 36 37 37 38 37 37 36 36 35 35 35 35
29 29 29 29 29 29 29 29 29 28 28 28 29 29 30 30 31 32 32 33 34 34 35 36 36 37 37 37 37 37 38 38 38 38 39 39 39 38 37 36 36 36 35
31 31 31 31 31 31 31 31 31 31 31 31 31 31 32 33 34 34 35 36 36 37 38 38 38 38 39 39 40 39 39 39 39 39 40 40 40 39 38 38 37 36 35
33 33 34 34 33 33 32 32 33 34 34 34 35 35 36 37 37 38 38 39 39 40 39 40 40 40 41 41 41 41 41 41 41 41 41 40 40 40 39 38 38 37 35
36 36 36 35 35 35 35 36 36 37 37 37 37 38 38 39 39 40 40 41 42 42 42 42 42 42 43 43 43 43 43 43 43 42 41 41 41 40 39 38 38 37 35
37 38 38 38 38 38 37 37 38 39 40 41 41 42 42 42 42 42 43 43 44 45 45 45 45 45 45 45 45 45 44 44 43 43 42 41 40 39 39 38 38 37 36
39 39 39 39 39 39 39 40 40 40 41 42 43 44 45 46 46 46 45 45 46 46 47 47 47 47 47 46 46 46 45 45 44 43 42 41 40 39 39 39 38 37 36
41 41 41 41 41 41 41 42 42 43 44 44 45 47 48 48 48 48 47 47 47 47 48 49 49 48 48 47 48 47 46 45 44 43 43 42 41 40 39 39 38 37 36
43 43 44 43 43 43 43 44 45 46 47 47 48 48 49 48 48 49 49 48 48 48 49 49 48 49 49 49 48 47 45 44 44 44 44 42 41 40 40 39 38 37 36
45 45 46 46 46 46 47 47 47 48 48 49 49 49 50 50 50 50 50 50 50 50 49 49 49 49 48 48 47 46 45 45 45 44 43 42 41 41 40 39 38 37 36
48 48 48 48 49 49 49 49 49 49 49 49 50 50 51 51 50 50 50 51 51 51 51 50 50 49 48 47 47 47 46 45 44 44 42 41 42 41 40 38 37 36 35
49 49 50 50 50 50 51 50 50 50 51 50 50 51 51 51 52 51 51 51 52 52 49 48 48 47 47 47 47 46 45 45 44 43 42 42 41 40 38 37 36 35 34
51 51 52 52 52 51 50 51 51 52 51 51 51 51 51 51 51 51 51 51 51 50 49 48 47 47 46 47 46 46 45 44 44 42 42 41 40 38 37 36 35 34 33
52 52 52 51 51 50 50 50 50 50 50 50 50 50 50 50 50 50 50 50 49 49 49 47 47 46 46 45 44 44 44 44 42 42 40 39 37 37 36 35 34 33 33
51 51 50 50 50 50 50 49 50 49 49 50 50 50 49 49 49 49 49 48 48 48 47 47 46 45 45 44 44 44 43 42 42 40 38 37 36 36 35 34 34 33 33
50 50 50 50 50 50 50 49 49 49 48 48 48 48 48 48 48 47 47 47 47 47 46 46 45 45 45 44 43 43 42 41 40 39 37 37 36 36 34 34 33 33 33
48 49 49 48 48 48 48 47 47 47 47 47 47 47 47 46 46 46 46 46 46 46 45 45 45 44 43 42 42 41 40 39 38 37 36 36 35 34 34 34 34 34 33
46 46 46 46 46 46 46 46 45 45 45 45 46 46 46 46 46 45 45 45 45 45 44 44 43 43 41 41 40 39 38 37 37 37 36 35 35 34 34 34 34 34 34
44 44 44 44 44 44 44 44 44 44 45 45 45 45 45 45 44 44 44 43 43 43 43 42 41 41 40 39 38 38 37 36 36 36 36 35 35 35 34 34 34 34 34
43 43 43 43 43 43 43 43 43 44 44 45 45 45 44 43 43 42 42 42 42 41 41 40 39 39 38 38 37 37 36 36 35 35 36 35 35 35 34 34 34 35 35
42 42 42 42 43 43 44 44 45 45 45 45 44 43 42 42 41 41 40 40 40 39 38 38 38 37 37 36 36 36 36 36 36 36 35 35 35 34 34 34 35 35 36
42 42 42 42 43 43 44 44 44 44 44 44 43 42 41 41 40 40 39 39 38 38 38 37 37 37 36 36 35 35 35 35 35 35 34 34 34 34 34 35 35 36 36
41 41 41 42 42 42 41 41 41 41 41 41 41 40 40 39 39 39 38 38 37 37 36 36 36 35 35 35 35 35 35 35 35 34 34 34 34 34 34 35 36 36 37
Wind_Direction
244 246 248 250 251 253 255 258 262 265 269 273 277 280 284 288 290 293 295 297 299 300 302 304 306 308 309 310 310 311 311 311 311 312 313 313 312 311 309 308 307 306 304
247 249 250 252 254 256 259 261 264 267 271 275 278 282 285 288 290 292 294 296 297 298 300 302 304 306 306 307 307 308 309 309 309 309 310 310 310 309 307 306 306 305 303
248 251 253 255 257 258 260 263 265 268 272 275 279 282 286 288 290 292 293 295 296 298 299 301 303 304 304 305 305 306 306 306 307 307 307 307 307 306 305 304 304 303 302
250 252 255 257 258 260 262 264 266 269 273 276 279 283 286 288 290 291 292 294 296 297 299 300 301 302 302 302 303 304 304 304 305 305 305 305 305 304 303 302 302 301 301
251 253 256 258 260 262 263 265 268 270 274 277 280 283 285 287 289 290 291 293 295 296 298 299 299 300 300 300 301 302 302 302 303 303 303 303 302 302 301 301 301 301 299
253 255 257 260 261 263 265 266 270 273 275 278 281 284 286 288 290 290 291 292 294 295 296 297 298 298 299 300 300 300 300 300 301 301 301 300 300 299 300 299 299 299 297
254 257 259 261 262 264 266 268 271 274 276 278 280 283 286 289 289 289 290 291 293 294 295 296 296 297 298 299 299 299 299 298 298 298 298 297 297 297 297 297 297 297 295
257 258 260 262 264 266 268 270 272 275 277 279 281 283 284 286 287 289 290 291 291 292 293 294 295 296 297 297 297 297 297 296 297 297 296 295 295 295 295 294 295 295 294
257 260 262 263 265 267 270 272 274 275 277 279 281 284 285 286 286 288 289 290 291 292 293 293 294 294 295 295 295 296 295 295 295 295 294 294 294 293 293 293 293 293 292
259 261 263 264 265 267 269 271 273 276 278 280 282 283 285 286 286 287 287 288 289 290 291 292 292 292 293 293 293 294 293 293 293 292 291 291 291 291 290 290 291 290 289
260 261 263 265 265 267 270 272 274 276 278 280 282 284 285 286 287 287 287 287 288 289 289 290 290 291 291 291 292 291 291 291 291 290 289 289 289 289 289 289 289 288 287
262 263 265 266 267 269 271 273 274 276 278 280 282 283 284 285 286 286 287 287 287 288 288 289 289 289 290 290 290 290 290 289 288 288 288 288 288 288 288 289 288 286 285
263 265 265 267 268 270 272 273 275 277 278 280 282 283 283 285 285 286 286 287 286 287 287 287 288 288 288 289 288 288 288 288 288 288 288 288 288 288 288 287 286 285 283
262 264 266 267 269 271 273 275 277 277 279 281 282 282 283 284 285 286 287 287 285 286 286 287 287 287 287 288 288 289 288 288 288 288 287 288 288 288 286 286 285 283 281
263 265 267 269 271 273 274 275 276 278 279 280 281 282 283 284 285 286 285 285 286 285 286 286 286 286 287 287 287 287 287 287 286 286 286 286 287 286 286 285 284 282 281
264 266 267 269 271 273 274 275 277 278 279 279 280 281 282 283 283 283 284 285 284 284 284 285 285 285 286 286 286 286 286 286 287 287 286 286 285 284 285 284 283 281 280
264 265 267 268 271 272 273 274 276 277 278 279 280 281 281 282 282 283 283 283 283 283 284 285 285 285 285 286 286 286 286 286 287 286 286 285 284 284 284 283 281 280 279
263 265 266 268 270 272 273 274 276 277 279 280 280 280 280 281 281 281 281 282 283 283 283 284 284 284 285 285 285 284 284 285 286 286 285 284 284 284 283 282 281 280 279
263 265 266 269 270 272 273 274 275 277 278 279 279 280 280 280 281 281 281 282 282 283 283 283 283 283 284 284 284 283 284 284 284 284 284 283 283 284 283 282 281 280 279
263 265 267 268 270 272 272 274 275 276 277 278 279 279 279 280 280 280 281 281 282 282 283 282 282 282 283 283 283 283 283 284 283 283 283 283 283 283 282 282 281 281 279
262 265 267 269 270 271 273 274 275 276 277 278 279 279 278 279 279 280 280 281 281 281 282 282 283 283 283 283 283 282 283 283 282 283 282 282 283 283 282 282 282 281 279
262 264 265 267 269 270 272 273 274 275 276 277 278 278 278 278 279 280 280 280 280 281 281 282 282 282 282 282 282 282 282 282 283 283 282 282 283 283 282 282 282 281 280
262 264 265 267 268 270 271 273 274 275 276 277 277 278 278 279 279 279 279 279 280 281 281 281 282 282 282 282 282 282 282 282 282 282 283 283 282 283 282 282 282 282 281
262 264 266 267 269 270 271 272 274 274 275 276 277 277 278 278 278 278 278 279 280 280 280 281 281 281 281 281 281 281 282 283 283 282 283 282 282 283 283 283 283 283 283
262 264 266 268 269 271 272 273 274 275 276 276 277 277 277 277 277 277 278 279 279 279 280 281 281 281 280 280 281 281 282 282 283 283 282 282 283 283 283 284 284 284 285
263 264 266 268 270 272 273 274 275 276 276 276 276 276 276 277 277 277 277 278 278 279 280 281 281 281 281 281 281 281 282 282 283 283 283 283 283 283 284 284 285 286 286
Height
5865 5867 5868 5868 5869 5870 5870 5870 5870 5870 5870 5870 5869 5869 5868 5867 5866 5865 5864 5862 5861 5859 5857 5855 5853 5851 5848 5846 5843 5840 5837 5834 5831 5828 5824 5821 5818 5815 5812 5809 5805 5802 5799
5861 5862 5863 5864 5865 5865 5866 5866 5866 5866 5866 5866 5865 5865 5864 5863 5862 5861 5859 5858 5856 5854 5852 5850 5848 5846 5843 5840 5837 5834 5831 5828 5825 5822 5819 5815 5812 5809 5805 5802 5799 5796 5793
5856 5857 5858 5859 5860 5861 5861 5861 5861 5861 5861 5861 5860 5860 5859 5858 5857 5856 5854 5852 5851 5849 5846 5844 5842 5840 5837 5834 5832 5828 5825 5822 5819 5816 5813 5809 5806 5803 5799 5796 5793 5790 5787
5851 5852 5853 5854 5855 5855 5856 5856 5856 5856 5856 5855 5855 5854 5854 5853 5851 5850 5848 5847 5845 5843 5840 5838 5836 5833 5831 5828 5825 5822 5819 5816 5812 5809 5806 5802 5799 5796 5792 5789 5786 5783 5780
5845 5846 5847 5848 5849 5850 5850 5850 5850 5850 5850 5850 5849 5849 5848 5846 5845 5844 5842 5840 5838 5836 5834 5832 5829 5826 5824 5821 5818 5815 5812 5809 5805 5802 5798 5795 5792 5788 5785 5782 5779 5776 5773
5838 5840 5841 5842 5842 5843 5844 5844 5844 5844 5844 5843 5843 5842 5841 5840 5838 5836 5835 5833 5831 5829 5827 5824 5822 5819 5816 5813 5810 5807 5804 5801 5798 5794 5791 5787 5784 5781 5777 5774 5771 5768 5765
5831 5832 5834 5834 5835 5836 5836 5837 5837 5837 5836 5836 5835 5835 5834 5832 5831 5829 5827 5825 5823 5821 5819 5816 5813 5811 5808 5805 5802 5799 5796 5793 5790 5786 5783 5779 5776 5773 5770 5766 5763 5760 5758
5823 5824 5826 5827 5828 5828 5829 5829 5829 5829 5828 5828 5827 5826 5826 5825 5822 5821 5819 5816 5814 5812 5810 5807 5805 5802 5799 5796 5793 5790 5787 5784 5781 5777 5774 5771 5767 5764 5761 5758 5755 5752 5750
5815 5816 5817 5818 5819 5820 5820 5820 5820 5820 5820 5819 5818 5817 5816 5816 5814 5813 5810 5807 5805 5803 5800 5798 5795 5793 5790 5787 5784 5781 5777 5775 5771 5768 5765 5762 5759 5756 5753 5750 5747 5744 5742
5806 5807 5808 5809 5810 5811 5811 5811 5811 5811 5811 5810 5809 5807 5806 5805 5804 5803 5802 5798 5796 5793 5791 5788 5785 5782 5780 5777 5774 5770 5767 5764 5761 5758 5755 5752 5750 5747 5744 5741 5738 5736 5733
5797 5798 5799 5800 5801 5802 5802 5802 5802 5802 5801 5801 5799 5798 5796 5794 5792 5791 5791 5789 5786 5783 5780 5778 5775 5772 5769 5766 5763 5760 5757 5754 5751 5748 5746 5743 5740 5737 5734 5732 5729 5727 5725
5787 5789 5790 5791 5792 5792 5792 5792 5792 5792 5791 5790 5789 5788 5786 5784 5782 5780 5779 5778 5775 5773 5770 5767 5764 5761 5758 5755 5752 5749 5746 5743 5740 5738 5735 5733 5730 5728 5725 5723 5720 5718 5716
5778 5779 5780 5781 5782 5782 5782 5782 5782 5781 5780 5780 5778 5777 5775 5773 5771 5769 5767 5766 5764 5762 5759 5756 5753 5749 5747 5744 5741 5738 5735 5732 5729 5727 5724 5722 5720 5718 5715 5713 5711 5709 5707
5768 5769 5770 5771 5771 5771 5771 5771 5771 5770 5769 5768 5767 5766 5764 5762 5760 5758 5756 5754 5752 5750 5747 5745 5741 5738 5735 5732 5730 5727 5724 5721 5718 5716 5714 5711 5709 5707 5705 5703 5701 5699 5697
5757 5758 5759 5759 5759 5760 5760 5760 5759 5759 5758 5756 5755 5754 5752 5750 5748 5746 5744 5741 5740 5738 5736 5733 5730 5727 5724 5721 5718 5715 5713 5710 5708 5705 5703 5701 5699 5697 5695 5693 5691 5690 5688
5746 5747 5748 5748 5749 5749 5749 5748 5748 5747 5746 5745 5743 5742 5740 5738 5736 5734 5732 5729 5727 5725 5724 5722 5718 5715 5712 5710 5707 5705 5702 5699 5697 5695 5692 5691 5688 5686 5685 5683 5681 5680 5678
5734 5735 5736 5737 5737 5737 5737 5736 5736 5735 5734 5733 5732 5730 5728 5727 5724 5722 5720 5717 5715 5712 5711 5709 5707 5704 5701 5698 5696 5693 5691 5689 5686 5684 5682 5680 5678 5676 5675 5673 5671 5670 5669
5723 5723 5724 5725 5725 5725 5725 5725 5724 5723 5722 5721 5720 5718 5716 5714 5712 5710 5708 5706 5703 5701 5699 5697 5695 5692 5689 5687 5685 5682 5680 5678 5676 5673 5671 5670 5668 5666 5665 5663 5662 5661 5660
5711 5712 5712 5713 5713 5713 5713 5712 5712 5711 5710 5709 5707 5706 5704 5702 5700 5698 5696 5694 5691 5689 5687 5685 5683 5680 5678 5676 5674 5671 5669 5667 5665 5663 5661 5659 5658 5656 5655 5653 5652 5651 5650
5699 5700 5701 5701 5701 5701 5701 5700 5700 5699 5698 5696 5695 5693 5692 5690 5688 5686 5684 5682 5680 5677 5675 5673 5671 5669 5667 5664 5662 5660 5659 5657 5655 5653 5651 5649 5648 5646 5645 5644 5642 5641 5640
5688 5688 5689 5689 5689 5689 5689 5688 5688 5687 5685 5684 5683 5681 5679 5678 5676 5674 5672 5670 5668 5666 5664 5662 5659 5657 5656 5654 5652 5650 5648 5646 5644 5643 5641 5640 5638 5637 5635 5634 5632 5631 5629
5676 5677 5678 5678 5678 5678 5677 5677 5676 5675 5674 5672 5671 5669 5667 5666 5664 5662 5660 5658 5656 5654 5652 5650 5648 5647 5645 5643 5641 5640 5638 5636 5635 5633 5631 5630 5628 5626 5625 5623 5622 5620 5619
5665 5666 5666 5666 5666 5666 5665 5665 5664 5663 5662 5660 5659 5657 5655 5654 5652 5650 5649 5647 5645 5643 5641 5640 5638 5636 5634 5633 5631 5629 5628 5626 5624 5623 5621 5619 5617 5616 5614 5612 5611 5609 5608
5654 5655 5655 5655 5655 5654 5654 5653 5652 5651 5650 5648 5647 5645 5644 5642 5641 5639 5637 5636 5634 5632 5631 5629 5627 5626 5624 5622 5621 5619 5617 5616 5614 5612 5610 5609 5607 5605 5603 5602 5600 5598 5597
5643 5644 5644 5643 5643 5643 5642 5641 5640 5639 5638 5636 5635 5634 5632 5631 5630 5628 5627 5626 5624 5622 5620 5619 5617 5615 5614 5612 5610 5609 5607 5606 5604 5602 5600 5599 5597 5595 5593 5591 5589 5587 5585
5632 5632 5632 5632 5632 5631 5630 5629 5628 5627 5626 5625 5623 5622 5621 5620 5618 5617 5616 5615 5613 5612 5610 5609 5607 5605 5604 5602 5600 5599 5597 5595 5594 5592 5590 5589 5586 5585 5583 5580 5578 5576 5574